Location: Ambrosina
(19.9365°S, 43.9833°W)
Time: 00:55:33
(UTC+00:00)

BREEZE-M DEB (TANK) - Pass Details

Date: 11 May 2021
Orbit: 403 x 14916 km, 45.9° (Epoch: 19 June)

Event Time Altitude Azimuth Distance (km) Brightness Sun altitude
Rises 21:55:47 0° 293° (WNW) 2,382 7.6 -20.5°
Reaches altitude 10° 21:57:46 10° 279° (W) 1,456 6.2 -21.0°
Maximum altitude 22:00:12 29° 214° (SSW) 874 4.0 -21.5°
Enters shadow 22:00:53 26° 189° (S) 990 4.0 -21.7°
